Weather History for KHQU - January, 2013

Change the Weather History Date:

Wednesday, January 23, 2013

  Actual Average (KDBN) Record (KDBN)
Temperature  
Mean Temperature 40 °F -  
Max Temperature 53 °F 57 °F 80 °F (1937)
Min Temperature 26 °F 34 °F 14 °F (1985)
Degree Days  
Heating Degree Days 26    
Moisture  
Dew Point 27 °F    
Average Humidity 60    
Maximum Humidity 80    
Minimum Humidity 41    
Precipitation  
Precipitation 0.00 in - - ()
Sea Level Pressure  
Sea Level Pressure 30.32 in    
Wind  
Wind Speed 4 mph (West)    
Max Wind Speed 14 mph    
Max Gust Speed 21 mph    
Visibility 10 miles    
Events      
Averages and records for this station are not official NWS values.
T = Trace of Precipitation, MM = Missing Value Source: NWS Daily Summary

Daily Weather History Graph

Daily Weather History Graph

Search for Another Location

Airport or City:

Trip Planner

Search our weather history database for the weather conditions in past years. The results will help you decide how hot, cold, wet, or windy it might be!

Date:

Astronomy

Jan. 23, 2013 Rise Set
Actual Time 7:31 AM EST 5:52 PM EST
Civil Twilight 7:04 AM EST 6:19 PM EST
Nautical Twilight 6:34 AM EST 6:49 PM EST
Astronomical Twilight 6:05 AM EST 7:19 PM EST
Moon 3:04 PM EST (1/23) 4:39 AM EST (1/23)
Length of Visible Light 11h 14m
Length of Day
10h 21m
Waxing Gibbous, 89% of the Moon is Illuminated
Jan 23
Waxing Gibbous
Jan 26
Full
Feb 3
Last Quarter
Feb 10
New
Feb 17
First Quarter

Hourly Weather History & Observations

Time (EST) Temp. Windchill Dew Point Humidity Pressure Visibility Wind Dir Wind Speed Gust Speed Precip Events Conditions
12:15 AM 32.2 °F - 21.4 °F 64% 30.34 in 10.0 mi Calm Calm - N/A   Clear
12:35 AM 32.0 °F - 21.0 °F 64% 30.34 in 10.0 mi Calm Calm - N/A   Clear
1:15 AM 30.9 °F - 21.7 °F 69% 30.34 in 10.0 mi Calm Calm - N/A   Clear
1:35 AM 31.5 °F 26.8 °F 20.8 °F 65% 30.35 in 10.0 mi NW 4.6 mph - N/A   Clear
1:55 AM 31.1 °F 27.7 °F 20.1 °F 64% 30.35 in 10.0 mi WNW 3.5 mph - N/A   Clear
2:15 AM 31.1 °F - 20.5 °F 65% 30.35 in 10.0 mi Calm Calm - N/A   Clear
2:35 AM 31.1 °F 27.7 °F 19.6 °F 62% 30.35 in 10.0 mi WNW 3.5 mph - N/A   Clear
2:55 AM 30.6 °F 27.1 °F 19.4 °F 63% 30.36 in 10.0 mi NW 3.5 mph - N/A   Clear
3:15 AM 28.8 °F 25.0 °F 21.9 °F 76% 30.36 in 10.0 mi WNW 3.5 mph - N/A   Clear
3:35 AM 29.5 °F 25.9 °F 20.7 °F 70% 30.36 in 10.0 mi WNW 3.5 mph - N/A   Clear
3:55 AM 29.8 °F 26.3 °F 19.9 °F 67% 30.35 in 10.0 mi WNW 3.5 mph - N/A   Clear
4:15 AM 29.8 °F - 19.8 °F 66% 30.35 in 10.0 mi Calm Calm - N/A   Clear
4:35 AM 29.8 °F 26.3 °F 19.4 °F 65% 30.34 in 10.0 mi WNW 3.5 mph - N/A   Clear
4:55 AM 29.3 °F 24.3 °F 19.8 °F 68% 30.35 in 10.0 mi WNW 4.6 mph - N/A   Clear
5:15 AM 30.0 °F 26.5 °F 18.7 °F 63% 30.36 in 10.0 mi NW 3.5 mph - N/A   Clear
5:35 AM 29.3 °F 25.6 °F 18.5 °F 64% 30.36 in 10.0 mi WNW 3.5 mph - N/A   Clear
5:55 AM 28.9 °F 25.2 °F 18.3 °F 65% 30.36 in 10.0 mi WNW 3.5 mph - N/A   Clear
6:15 AM 28.4 °F - 18.3 °F 66% 30.36 in 10.0 mi Calm Calm - N/A   Clear
6:35 AM 27.3 °F - 19.8 °F 73% 30.38 in 10.0 mi Calm Calm - N/A   Clear
6:55 AM 26.4 °F 22.4 °F 21.0 °F 80% 30.38 in 10.0 mi West 3.5 mph - N/A   Clear
7:15 AM 26.4 °F - 19.8 °F 76% 30.39 in 10.0 mi Calm Calm - N/A   Clear
7:35 AM 27.5 °F 23.6 °F 19.6 °F 72% 30.39 in 10.0 mi West 3.5 mph - N/A   Clear
7:55 AM 27.5 °F - 20.1 °F 74% 30.39 in 10.0 mi Calm Calm - N/A   Clear
8:15 AM 28.9 °F - 22.3 °F 76% 30.39 in 10.0 mi Calm Calm - N/A   Clear
8:55 AM 32.9 °F 29.8 °F 21.4 °F 63% 30.41 in 10.0 mi West 3.5 mph - N/A   Clear
9:15 AM 35.2 °F 32.4 °F 20.8 °F 56% 30.41 in 10.0 mi West 3.5 mph - N/A   Clear
9:35 AM 37.4 °F 32.8 °F 20.5 °F 51% 30.41 in 10.0 mi WNW 5.8 mph - N/A   Clear
9:55 AM 39.4 °F 34.5 °F 20.5 °F 47% 30.42 in 10.0 mi WNW 6.9 mph - N/A   Clear
10:15 AM 41.9 °F 38.2 °F 21.0 °F 43% 30.42 in 10.0 mi West 5.8 mph - N/A   Clear
10:35 AM 43.2 °F 39.0 °F 21.4 °F 42% 30.42 in 10.0 mi WNW 6.9 mph - N/A   Clear
10:55 AM 44.8 °F 41.6 °F 22.3 °F 41% 30.42 in 10.0 mi West 5.8 mph - N/A   Clear
11:15 AM 45.7 °F 43.4 °F 23.5 °F 42% 30.41 in 10.0 mi West 4.6 mph - N/A   Clear
11:35 AM 46.6 °F - 24.6 °F 42% 30.40 in 10.0 mi NW 6.9 mph - N/A   Clear
11:55 AM 47.1 °F - 25.0 °F 42% 30.40 in 10.0 mi West 4.6 mph - N/A   Clear
12:15 PM 48.4 °F - 27.0 °F 43% 30.38 in 10.0 mi WNW 11.5 mph - N/A   Clear
12:35 PM 49.1 °F - 28.4 °F 45% 30.36 in 10.0 mi WNW 9.2 mph - N/A   Clear
12:55 PM 50.2 °F - 29.3 °F 45% 30.35 in 10.0 mi WNW 13.8 mph 20.7 mph N/A   Clear
1:15 PM 50.0 °F - 28.6 °F 44% 30.34 in 10.0 mi WNW 9.2 mph 20.7 mph N/A   Clear
1:35 PM 51.1 °F - 29.5 °F 43% 30.32 in 10.0 mi West 11.5 mph - N/A   Clear
1:55 PM 51.1 °F - 29.5 °F 43% 30.31 in 10.0 mi West 8.1 mph - N/A   Clear
2:15 PM 51.8 °F - 29.3 °F 42% 30.29 in 10.0 mi West 10.4 mph - N/A   Clear
2:35 PM 52.3 °F - 30.0 °F 42% 30.28 in 10.0 mi West 8.1 mph - N/A   Clear
2:55 PM 52.7 °F - 30.2 °F 42% 30.28 in 10.0 mi West 5.8 mph - N/A   Clear
3:15 PM 53.2 °F - 31.3 °F 43% 30.28 in 10.0 mi WSW 10.4 mph - N/A   Clear
3:35 PM 53.6 °F - 31.8 °F 44% 30.28 in 10.0 mi West 11.5 mph 17.3 mph N/A   Clear
3:55 PM 53.2 °F - 32.0 °F 44% 30.28 in 10.0 mi West 9.2 mph - N/A   Clear
4:15 PM 53.4 °F - 32.2 °F 44% 30.28 in 10.0 mi West 9.2 mph - N/A   Clear
4:35 PM 53.4 °F - 32.4 °F 45% 30.26 in 10.0 mi WSW 6.9 mph - N/A   Clear
4:55 PM 52.9 °F - 32.9 °F 47% 30.26 in 10.0 mi SW 5.8 mph - N/A   Clear
5:15 PM 52.0 °F - 33.1 °F 49% 30.26 in 10.0 mi WSW 4.6 mph - N/A   Clear
5:35 PM 50.4 °F - 32.9 °F 51% 30.26 in 10.0 mi WSW 4.6 mph - N/A   Clear
5:55 PM 48.9 °F - 32.9 °F 54% 30.26 in 10.0 mi SW 4.6 mph - N/A   Clear
6:15 PM 46.6 °F - 32.9 °F 59% 30.25 in 10.0 mi SW 3.5 mph - N/A   Clear
6:35 PM 45.1 °F - 33.1 °F 63% 30.26 in 10.0 mi Calm Calm - N/A   Clear
6:55 PM 42.8 °F - 32.7 °F 68% 30.26 in 10.0 mi Calm Calm - N/A   Clear
7:15 PM 41.0 °F - 32.7 °F 72% 30.26 in 10.0 mi Calm Calm - N/A   Clear
7:35 PM 40.3 °F 38.2 °F 32.7 °F 74% 30.25 in 10.0 mi South 3.5 mph - N/A   Clear
7:55 PM 39.6 °F - 32.7 °F 76% 30.25 in 10.0 mi Calm Calm - N/A   Clear
8:15 PM 39.2 °F - 32.4 °F 76% 30.24 in 10.0 mi Calm Calm - N/A   Clear
8:35 PM 39.6 °F 37.4 °F 32.4 °F 75% 30.24 in 10.0 mi South 3.5 mph - N/A   Clear
8:55 PM 41.0 °F 38.0 °F 32.9 °F 73% 30.23 in 10.0 mi South 4.6 mph - N/A   Clear
9:15 PM 41.4 °F 37.6 °F 33.3 °F 73% 30.23 in 10.0 mi SSW 5.8 mph - N/A   Clear
9:35 PM 41.9 °F 38.2 °F 34.2 °F 74% 30.24 in 10.0 mi SSW 5.8 mph - N/A   Mostly Cloudy
9:55 PM 44.2 °F 41.8 °F 35.8 °F 72% 30.23 in 10.0 mi SSW 4.6 mph - N/A   Mostly Cloudy
10:15 PM 44.8 °F 41.6 °F 36.3 °F 72% 30.23 in 10.0 mi SW 5.8 mph - N/A   Scattered Clouds
10:35 PM 45.0 °F 41.8 °F 36.5 °F 72% 30.22 in 10.0 mi SSW 5.8 mph - N/A   Scattered Clouds
10:55 PM 45.3 °F 41.6 °F 36.7 °F 72% 30.22 in 10.0 mi SW 6.9 mph - N/A   Scattered Clouds
11:15 PM 45.7 °F 42.7 °F 37.6 °F 73% 30.21 in 10.0 mi SW 5.8 mph - N/A   Clear
11:35 PM 47.1 °F - 38.7 °F 72% 30.22 in 10.0 mi SW 6.9 mph - N/A   Mostly Cloudy
11:55 PM 48.9 °F - 40.1 °F 72% 30.21 in 10.0 mi WSW 9.2 mph 16.1 mph N/A   Overcast